Weather History for KCKC - October, 2013

Change the Weather History Date:

Thursday, October 31, 2013

  Actual Average Record
Temperature  
Mean Temperature 40 °F -  
Max Temperature 44 °F 38 °F 60 °F (1999)
Min Temperature 37 °F 27 °F 6 °F (1996)
Degree Days  
Heating Degree Days 24    
Moisture  
Dew Point 37 °F    
Average Humidity 89    
Maximum Humidity 93    
Minimum Humidity 87    
Precipitation  
Precipitation 0.02 in - - ()
Sea Level Pressure  
Sea Level Pressure 29.44 in    
Wind  
Wind Speed 3 mph (NNW)    
Max Wind Speed 14 mph    
Max Gust Speed 18 mph    
Visibility 5 miles    
Events Fog , Rain    
Averages and records for this station are not official NWS values.
T = Trace of Precipitation, MM = Missing Value Source: NWS Daily Summary

Daily Weather History Graph

Daily Weather History Graph

Search for Another Location

Airport or City:

Trip Planner

Search our weather history database for the weather conditions in past years. The results will help you decide how hot, cold, wet, or windy it might be!

Date:

Astronomy

Oct. 31, 2013 Rise Set
Actual Time 7:44 AM CDT 5:44 PM CDT
Civil Twilight 7:12 AM CDT 6:16 PM CDT
Nautical Twilight 6:36 AM CDT 6:53 PM CDT
Astronomical Twilight 6:00 AM CDT 7:29 PM CDT
Moon 4:22 AM CDT (10/31) 4:13 PM CDT (10/31)
Length of Visible Light 11h 04m
Length of Day
9h 59m
Waning Crescent, 10% of the Moon is Illuminated
Oct 31
Waning Crescent
Nov 3
New
Nov 9
First Quarter
Nov 17
Full
Nov 25
Last Quarter

Hourly Weather History & Observations

Time (CDT) Temp. Windchill Dew Point Humidity Pressure Visibility Wind Dir Wind Speed Gust Speed Precip Events Conditions
12:14 AM 39.2 °F - 35.6 °F 87% 29.65 in 0.2 mi Calm Calm - N/A Rain Light Rain
12:33 AM 39.2 °F - 35.6 °F 87% 29.65 in 0.2 mi Calm Calm - N/A Rain Light Rain
12:54 AM 39.2 °F - 35.6 °F 87% 29.64 in 0.2 mi Calm Calm - 0.02 in Rain Light Rain
1:14 AM 39.2 °F - 35.6 °F 87% 29.62 in 0.2 mi Calm Calm - N/A Fog Fog
1:33 AM 39.2 °F - 35.6 °F 87% 29.62 in 0.2 mi Calm Calm - N/A Fog Fog
1:54 AM 39.2 °F - 35.6 °F 87% 29.62 in 0.2 mi Calm Calm - N/A Fog Fog
2:14 AM 39.2 °F - 35.6 °F 87% 29.62 in 0.2 mi Calm Calm - N/A Fog Fog
2:33 AM 39.2 °F - 35.6 °F 87% 29.61 in 0.2 mi Calm Calm - N/A Fog Fog
2:54 AM 39.2 °F - 35.6 °F 87% 29.60 in 0.2 mi Calm Calm - N/A Fog Fog
3:13 AM 39.2 °F 37.0 °F 37.4 °F 93% 29.59 in 1.8 mi West 3.5 mph - N/A   Overcast
3:33 AM 39.2 °F 37.0 °F 37.4 °F 93% 29.58 in 1.2 mi West 3.5 mph - N/A   Overcast
3:54 AM 39.2 °F 37.0 °F 37.4 °F 93% 29.57 in 3.0 mi West 3.5 mph - N/A   Overcast
4:13 AM 39.2 °F - 37.4 °F 93% 29.56 in 10.0 mi Calm Calm - N/A   Overcast
4:33 AM 39.2 °F - 37.4 °F 93% 29.56 in 3.0 mi Calm Calm - N/A   Overcast
4:54 AM 39.2 °F - 37.4 °F 93% 29.55 in 7.0 mi Calm Calm - N/A   Overcast
5:14 AM 39.2 °F 35.0 °F 37.4 °F 93% 29.53 in 10.0 mi NW 5.8 mph - N/A   Overcast
5:33 AM 39.2 °F 37.0 °F 35.6 °F 87% 29.54 in 10.0 mi NW 3.5 mph - N/A   Overcast
5:54 AM 39.2 °F 34.2 °F 35.6 °F 87% 29.53 in 1.2 mi NNW 6.9 mph - N/A   Overcast
6:14 AM 39.2 °F - 35.6 °F 87% 29.53 in 0.8 mi Calm Calm - N/A   Overcast
6:33 AM 39.2 °F 37.0 °F 35.6 °F 87% 29.52 in 0.8 mi NNW 3.5 mph - N/A   Overcast
6:54 AM 39.2 °F 37.0 °F 35.6 °F 87% 29.52 in 0.8 mi NW 3.5 mph - N/A   Overcast
7:13 AM 39.2 °F 37.0 °F 35.6 °F 87% 29.51 in 1.0 mi NNW 3.5 mph - N/A   Overcast
7:33 AM 37.4 °F 32.8 °F 35.6 °F 93% 29.51 in 2.0 mi North 5.8 mph - N/A   Overcast
7:54 AM 37.4 °F 33.8 °F 35.6 °F 93% 29.51 in 1.2 mi North 4.6 mph - N/A   Overcast
8:13 AM 37.4 °F - 35.6 °F 93% 29.52 in 4.0 mi Calm Calm - N/A   Overcast
8:33 AM 37.4 °F - 35.6 °F 93% 29.52 in 0.5 mi Calm Calm - N/A Fog Fog
8:54 AM 37.4 °F - 35.6 °F 93% 29.51 in 0.2 mi Calm Calm - N/A Fog Fog
9:13 AM 39.2 °F - 35.6 °F 87% 29.50 in 0.2 mi Calm Calm - N/A Fog Fog
9:33 AM 39.2 °F - 35.6 °F 87% 29.49 in 0.2 mi Calm Calm - N/A Fog Fog
9:54 AM 39.2 °F - 35.6 °F 87% 29.50 in 0.2 mi Calm Calm - N/A Fog Fog
10:13 AM 39.2 °F - 37.4 °F 93% 29.48 in 0.2 mi Calm Calm - N/A Fog Fog
10:33 AM 39.2 °F - 37.4 °F 93% 29.47 in 0.2 mi Calm Calm - N/A Fog Fog
10:54 AM 39.2 °F - 37.4 °F 93% 29.47 in 0.5 mi Calm Calm - N/A Fog Fog
11:13 AM 39.2 °F - 37.4 °F 93% 29.46 in 0.8 mi Calm Calm - N/A   Overcast
11:33 AM 41.0 °F - 37.4 °F 87% 29.45 in 0.2 mi Calm Calm - N/A Fog Fog
11:53 AM 41.0 °F - 37.4 °F 87% 29.44 in 0.2 mi Calm Calm - N/A Fog Fog
12:14 PM 42.8 °F - 39.2 °F 87% 29.43 in 0.5 mi Calm Calm - N/A Fog Fog
12:33 PM 42.8 °F - 39.2 °F 87% 29.42 in 2.5 mi Calm Calm - N/A   Overcast
12:53 PM 42.8 °F 40.1 °F 39.2 °F 87% 29.41 in 5.0 mi NNW 4.6 mph - N/A   Overcast
1:14 PM 44.6 °F 43.1 °F 41.0 °F 87% 29.39 in 10.0 mi NW 3.5 mph - N/A   Overcast
1:33 PM 44.6 °F - 41.0 °F 87% 29.38 in 10.0 mi Calm Calm - N/A   Overcast
1:53 PM 44.6 °F - 42.8 °F 93% 29.37 in 10.0 mi Calm Calm - N/A   Overcast
2:14 PM 44.6 °F 41.4 °F 41.0 °F 87% 29.37 in 10.0 mi NW 5.8 mph - N/A   Overcast
2:33 PM 44.6 °F 40.2 °F 41.0 °F 87% 29.36 in 10.0 mi NNW 8.1 mph - N/A   Overcast
2:54 PM 44.6 °F 42.2 °F 41.0 °F 87% 29.35 in 10.0 mi NNW 4.6 mph - N/A   Overcast
3:14 PM 42.8 °F 39.3 °F 39.2 °F 87% 29.35 in 10.0 mi NNW 5.8 mph - N/A   Overcast
3:33 PM 42.8 °F 39.3 °F 39.2 °F 87% 29.35 in 10.0 mi NW 5.8 mph - N/A   Overcast
3:54 PM 42.8 °F 40.1 °F 39.2 °F 87% 29.34 in 10.0 mi NW 4.6 mph - N/A   Overcast
4:14 PM 42.8 °F 38.0 °F 39.2 °F 87% 29.34 in 10.0 mi North 8.1 mph - N/A   Overcast
4:33 PM 41.0 °F 34.7 °F 39.2 °F 93% 29.33 in 10.0 mi NNW 10.4 mph - N/A   Overcast
4:54 PM 41.0 °F 34.7 °F 37.4 °F 87% 29.32 in 4.0 mi NNW 10.4 mph - N/A   Overcast
5:13 PM 39.2 °F 32.5 °F 37.4 °F 93% 29.32 in 10.0 mi NNW 10.4 mph - N/A   Overcast
5:33 PM 39.2 °F 33.0 °F 37.4 °F 93% 29.32 in 5.0 mi NW 9.2 mph - N/A   Overcast
5:54 PM 39.2 °F 33.6 °F 35.6 °F 87% 29.32 in 7.0 mi NNW 8.1 mph - N/A   Overcast
6:13 PM 39.2 °F 34.2 °F 35.6 °F 87% 29.32 in 7.0 mi NNW 6.9 mph - N/A   Overcast
6:33 PM 39.2 °F 33.0 °F 35.6 °F 87% 29.31 in 5.0 mi NNW 9.2 mph - N/A   Overcast
6:53 PM 39.2 °F 33.0 °F 35.6 °F 87% 29.31 in 5.0 mi NNW 9.2 mph - N/A   Overcast
7:13 PM 39.2 °F 31.6 °F 35.6 °F 87% 29.31 in 7.0 mi NNW 12.7 mph 16.1 mph N/A   Overcast
7:34 PM 39.2 °F 31.6 °F 35.6 °F 87% 29.30 in 3.0 mi North 12.7 mph 18.4 mph N/A   Overcast
7:54 PM 37.4 °F 29.3 °F 35.6 °F 93% 29.30 in 5.0 mi NNW 12.7 mph - N/A   Overcast
8:14 PM 37.4 °F 29.8 °F 35.6 °F 93% 29.30 in 7.0 mi NNW 11.5 mph 17.3 mph N/A   Overcast
8:33 PM 37.4 °F 29.8 °F 35.6 °F 93% 29.29 in 10.0 mi NNW 11.5 mph 17.3 mph N/A   Overcast
8:53 PM 37.4 °F 30.3 °F 35.6 °F 93% 29.29 in 10.0 mi NNW 10.4 mph 18.4 mph N/A   Overcast
9:13 PM 37.4 °F 28.9 °F 35.6 °F 93% 29.29 in 7.0 mi NNW 13.8 mph - N/A   Overcast
9:33 PM 37.4 °F 29.8 °F 35.6 °F 93% 29.29 in 10.0 mi NNW 11.5 mph 17.3 mph N/A   Overcast
9:53 PM 37.4 °F 32.1 °F 33.8 °F 87% 29.29 in 10.0 mi NNW 6.9 mph - N/A   Overcast
10:14 PM 37.4 °F 32.1 °F 33.8 °F 87% 29.29 in 10.0 mi NNW 6.9 mph - N/A   Overcast
10:34 PM 37.4 °F 32.1 °F 33.8 °F 87% 29.29 in 10.0 mi NNW 6.9 mph - N/A   Overcast
10:54 PM 37.4 °F 30.3 °F 33.8 °F 87% 29.29 in 10.0 mi NW 10.4 mph - N/A   Overcast
11:14 PM 37.4 °F 29.8 °F 33.8 °F 87% 29.28 in 10.0 mi NNW 11.5 mph - N/A   Overcast
11:34 PM 37.4 °F 32.8 °F 33.8 °F 87% 29.28 in 10.0 mi NW 5.8 mph - N/A   Overcast
11:53 PM 37.4 °F 32.1 °F 33.8 °F 87% 29.28 in 10.0 mi NW 6.9 mph - N/A   Overcast